[[{"header":{"parameterUnit":"m.s-1","parameterCategory":1,"la1":30.2992,"la2":30.254,"lo1":-89.0895,"lo2":-89.0443,"dy":0.0025,"dx":0.0025,"nx":19,"ny":19,"refTime":"2026-05-22T03:00:00:Z","depth":0,"parameterNumber":2,"parameterNumberName":"U-component_of_WINDS"},"data":[0,0,0,-2.637,-2.6372,-2.6474,-2.6474,-2.6602,-2.6604,0,0,0,0,0,0,0,0,0,0,0,-2.6339,-2.634,-2.6369,-2.6372,-2.6474,-2.6474,-2.6602,-2.6604,0,0,0,0,0,0,0,0,0,0,0,-2.6339,-2.634,-2.6341,-2.6372,-2.6474,-2.6474,-2.6602,-2.6526,0,0,0,0,0,0,0,0,0,0,-2.6427,-2.6398,-2.6339,-2.6341,-2.6373,-2.6473,-2.6474,-2.6522,-2.653,-2.6556,0,-2.6578,0,-2.6593,-2.6612,-2.6612,0,0,0,-2.6373,-2.6391,-2.6419,-2.6341,-2.6374,-2.6473,-2.6428,-2.6527,-2.6536,-2.6567,-2.658,-2.6585,-2.6595,-2.6613,-2.6613,-2.6754,-2.6755,0,0,-2.6367,-2.6357,-2.6413,-2.6425,-2.641,-2.6425,-2.6431,-2.6533,-2.6546,-2.658,-2.6588,-2.6597,-2.6614,-2.6615,-2.6754,-2.6754,0,0,0,-2.635,-2.6353,-2.6378,-2.642,-2.6438,-2.6428,-2.6435,-2.6542,-2.6551,-2.6589,-2.6598,-2.6614,-2.6616,-2.6753,-2.6754,-2.6773,0,0,0,-2.6347,-2.6343,-2.6376,-2.6371,-2.6437,-2.6492,-2.6442,-2.6544,-2.6556,-2.6598,-2.6614,-2.6617,-2.6752,-2.6754,-2.6771,-2.6784,0,0,0,-2.6333,-2.6342,-2.6356,-2.637,-2.6414,-2.649,-2.6505,-2.6547,-2.6561,-2.6613,-2.6618,-2.6752,-2.6753,-2.6769,-2.6781,-2.6815,0,0,0,-2.6314,-2.6374,-2.6356,-2.6427,-2.6413,-2.6502,-2.6505,-2.6572,-2.6618,-2.6615,-2.6753,-2.6754,-2.6769,-2.6779,-2.6813,-2.6841,-2.6852,0,0,-2.6384,-2.6382,-2.6424,-2.6411,-2.6501,-2.6487,-2.6579,-2.6632,-2.6647,-2.6718,-2.6721,-2.6772,-2.6781,-2.6815,-2.6922,-2.6931,0,0,0,-2.6443,-2.6473,-2.6499,-2.6541,-2.6582,-2.6617,-2.6657,-2.6676,-2.6736,-2.6681,-2.6795,-2.6801,-2.6821,-2.6835,-2.6842,-2.6859,-2.676,-2.676,-2.676,-2.6527,-2.6541,-2.6611,-2.6636,-2.6678,-2.6716,-2.675,-2.6783,-2.6787,-2.6813,-2.6834,-2.6897,-2.6912,-2.6918,-2.6936,-2.6851,-2.6852,-2.6852,-2.6852,-2.6629,-2.6672,-2.6673,-2.674,-2.6754,-2.6811,-2.685,-2.685,-2.6904,-2.6884,-2.6902,-2.6876,-2.6927,-2.6943,-2.6853,-2.6853,-2.6853,-2.6853,-2.6853,-2.6683,-2.6706,-2.6727,-2.6788,-2.6834,-2.6858,-2.6909,-2.6921,-2.6933,-2.6952,-2.6973,-2.6972,-2.6971,-2.6961,-2.6961,-2.6962,-2.6962,-2.6962,-2.6962,-2.6731,-2.6754,-2.6795,-2.6841,-2.6869,-2.6906,-2.6944,-2.6971,-2.7004,-2.7009,-2.7009,-2.7008,-2.6931,-2.6909,-2.6966,-2.6965,-2.6964,-2.6964,-2.6964,-2.6825,-2.6804,-2.6868,-2.6895,-2.6948,-2.6991,-2.7005,-2.7059,-2.7084,-2.7108,-2.7103,-2.7044,-2.7043,-2.7037,-2.7019,-2.7101,-2.7101,-2.7101,-2.7101,-2.6869,-2.6869,-2.6935,-2.6977,-2.7019,-2.7038,-2.7107,-2.7136,-2.7163,-2.7178,-2.7169,-2.7147,-2.7141,-2.7143,-2.7135,-2.7119,-2.7224,-2.7224,-2.7224,-2.6926,-2.693,-2.6987,-2.7012,-2.7054,-2.7089,-2.7154,-2.7201,-2.7228,-2.7229,-2.719,-2.7185,-2.715,-2.7138,-2.7137,-2.7124,-2.7094,0,0]},{"header":{"parameterUnit":"m.s-1","parameterCategory":1,"la1":30.2992,"la2":30.254,"lo1":-89.0895,"lo2":-89.0443,"dy":0.0025,"dx":0.0025,"nx":19,"ny":19,"refTime":"2026-05-22T03:00:00:Z","depth":0,"parameterNumber":3,"parameterNumberName":"V-component_of_WINDS"},"data":[0,0,0,3.4291,3.4293,3.4382,3.4382,3.4507,3.4508,0,0,0,0,0,0,0,0,0,0,0,3.4274,3.4275,3.4291,3.4294,3.4382,3.4382,3.4507,3.4508,0,0,0,0,0,0,0,0,0,0,0,3.4273,3.4275,3.4276,3.4294,3.4382,3.4382,3.4507,3.4435,0,0,0,0,0,0,0,0,0,0,3.4347,3.434,3.4274,3.4276,3.4295,3.4382,3.4382,3.4432,3.444,3.4473,0,3.4506,0,3.4509,3.4518,3.4518,0,0,0,3.4287,3.4333,3.435,3.4276,3.4296,3.4382,3.434,3.4436,3.4445,3.4484,3.4507,3.4512,3.4511,3.4519,3.4519,3.4737,3.4739,0,0,3.4282,3.4294,3.4343,3.4356,3.4345,3.4337,3.4343,3.4441,3.4467,3.4508,3.4514,3.4514,3.4519,3.4521,3.4736,3.4738,0,0,0,3.4272,3.4291,3.4304,3.4351,3.4366,3.434,3.4346,3.4463,3.4466,3.4516,3.4515,3.452,3.4522,3.4735,3.4737,3.4817,0,0,0,3.4269,3.4285,3.4303,3.4311,3.4365,3.4416,3.4366,3.446,3.447,3.4514,3.452,3.4523,3.4733,3.4736,3.4811,3.4852,0,0,0,3.4265,3.4285,3.4301,3.4311,3.435,3.4414,3.4423,3.4462,3.4471,3.4518,3.4524,3.4732,3.4735,3.4806,3.4844,3.4914,0,0,0,3.4264,3.4369,3.4302,3.442,3.435,3.4464,3.4422,3.4506,3.4557,3.4521,3.4733,3.4737,3.4805,3.4839,3.4909,3.4975,3.5004,0,0,3.4403,3.4386,3.4454,3.4397,3.4527,3.4449,3.4589,3.4623,3.4615,3.4697,3.4702,3.4813,3.4843,3.4913,3.5161,3.5184,0,0,0,3.4503,3.4552,3.4583,3.4633,3.4663,3.4691,3.4702,3.4715,3.4784,3.466,3.4856,3.4874,3.4914,3.4945,3.4965,3.4999,3.4751,3.4751,3.4751,3.4717,3.4704,3.4815,3.4813,3.4862,3.4873,3.4911,3.493,3.49,3.4947,3.4971,3.5123,3.516,3.5175,3.521,3.5004,3.5005,3.5005,3.5005,3.4921,3.4988,3.4949,3.5043,3.5028,3.5106,3.5121,3.5098,3.5168,3.5103,3.5138,3.5068,3.52,3.5231,3.5011,3.501,3.5009,3.5009,3.5008,3.506,3.509,3.5105,3.5177,3.5233,3.5226,3.5297,3.5279,3.5263,3.5297,3.5322,3.532,3.5317,3.531,3.5311,3.5311,3.5312,3.5312,3.5312,3.5199,3.5213,3.5275,3.5317,3.5347,3.5385,3.5398,3.5427,3.5455,3.5437,3.5437,3.5403,3.5216,3.517,3.5321,3.5319,3.5318,3.5317,3.5317,3.5411,3.5361,3.5457,3.5488,3.5536,3.5593,3.5571,3.5632,3.5653,3.5688,3.5647,3.5512,3.5493,3.5477,3.5439,3.565,3.565,3.565,3.565,3.5529,3.5518,3.5613,3.5664,3.5711,3.5701,3.581,3.5822,3.5825,3.5838,3.5804,3.5752,3.5737,3.5726,3.5705,3.5669,3.5934,3.5935,3.5935,3.5659,3.5652,3.5749,3.5754,3.579,3.5821,3.5923,3.5982,3.5975,3.5946,3.5847,3.5835,3.575,3.5723,3.5691,3.5659,3.5592,0,0]}]]